Location: State Line Observation Field
(36.5320°N, 77.5360°W)
Time: 16:22:16
(UTC-04:00)

PCSat - Visible Passes

Search period start: 15 May 2021 00:00
Search period end: 25 May 2021 00:00
Orbit: 785 x 794 km, 67.1° (Epoch: 14 May)

Date Brightness Start Highest point End Pass type
(mag) Time Alt. Az. Time Alt. Az. Time Alt. Az.
15 May 10.4 21:01:48 10° NW 21:07:01 49° WSW 21:12:12 10° S visible
17 May 12.3 21:46:24 10° W 21:47:37 11° WSW 21:48:50 10° WSW visible
18 May 12.1 21:13:34 10° WNW 21:16:48 16° WSW 21:20:02 10° SW visible
19 May 11.8 20:41:45 10° NW 20:45:57 23° WSW 20:50:08 10° SSW visible
